Theta_e
297 297 299 301 302 303 303 303 303 304 305 306 307 307 310 316 326 337 334 338 333 336 334 330 328 327 324 317 315 311 311 311 311 311 311 311 310 309 308 307 306 308 309
297 298 298 298 298 301 302 302 303 304 305 305 306 307 307 308 317 334 336 337 334 333 331 332 329 327 327 316 318 313 311 312 311 312 312 311 310 310 309 306 304 303 303
297 297 297 297 299 300 300 301 301 302 305 306 306 306 306 307 311 330 335 337 335 330 331 331 328 329 327 318 312 312 312 312 313 312 310 310 312 311 306 304 304 303 304
297 296 297 298 298 298 299 301 301 300 302 307 307 307 306 307 310 328 332 338 337 330 331 330 330 328 324 316 313 312 313 313 313 310 311 312 311 308 305 304 304 304 304
296 296 298 297 297 297 298 300 301 302 305 307 309 308 307 307 308 328 331 335 335 330 330 329 330 325 316 314 312 312 312 313 312 311 311 310 307 305 304 304 304 303 304
297 297 296 297 296 298 298 301 301 303 305 309 314 313 310 307 307 325 331 332 333 330 329 328 327 315 314 312 312 312 312 312 312 312 310 308 306 304 304 303 303 303 303
296 297 297 298 297 297 299 300 301 300 303 309 315 315 314 308 310 325 329 330 332 331 328 326 314 314 313 313 312 311 311 311 312 311 309 306 304 303 303 303 303 302 302
295 297 297 296 297 297 298 298 298 299 300 303 310 313 315 316 316 326 328 326 327 327 327 314 314 313 313 311 311 310 309 309 310 309 307 305 304 303 303 303 302 302 302
295 297 297 297 296 297 297 298 297 297 298 298 301 311 316 318 320 325 324 323 323 318 315 316 315 313 311 310 310 310 309 309 308 307 306 305 304 303 302 302 302 301 300
295 296 297 297 296 296 297 297 298 297 297 297 297 300 305 309 311 320 320 319 318 316 314 312 311 310 310 310 310 310 310 309 307 306 305 304 303 302 301 301 300 300 299
295 296 297 297 297 296 296 296 296 297 296 296 297 298 300 301 305 305 307 313 313 311 310 309 309 310 311 311 311 311 311 306 305 304 303 302 301 300 299 299 299 299 299
294 296 296 297 297 296 296 296 295 295 295 295 296 297 297 298 299 301 303 307 308 308 307 308 307 309 310 311 310 308 305 303 301 300 300 299 299 298 298 298 298 298 299
294 294 295 296 296 296 296 295 295 294 294 294 294 294 295 296 297 298 299 300 303 305 304 303 305 306 308 307 304 301 300 300 299 299 298 298 297 297 297 297 297 297 297
293 293 294 294 295 296 295 294 294 293 293 292 292 292 293 294 295 296 297 299 300 300 301 301 301 301 300 300 299 299 299 298 298 298 297 297 297 296 296 296 297 297 298
292 292 293 293 294 295 295 294 293 292 291 291 291 291 291 292 293 294 296 297 298 298 299 299 298 299 299 298 298 298 297 297 297 297 296 296 296 295 296 296 296 297 297
291 291 291 292 292 294 295 294 293 292 291 290 289 290 291 291 292 293 293 294 295 296 297 297 297 297 297 297 297 297 296 296 296 296 296 295 295 295 295 295 296 296 297
290 290 290 290 291 292 293 293 293 292 291 290 289 289 290 290 291 291 291 292 293 294 294 295 295 295 295 296 296 296 296 296 295 295 295 295 295 295 295 295 295 296 296
290 290 290 290 289 290 291 291 290 290 290 290 289 288 288 289 290 291 291 292 292 292 292 292 292 293 293 294 294 294 294 294 294 295 295 295 295 295 294 294 295 295 296
292 289 289 290 289 289 288 287 287 287 288 288 288 288 288 288 288 288 288 289 290 291 291 291 291 291 291 292 292 292 293 293 293 293 293 293 293 294 294 294 294 295 296
295 291 289 289 289 289 289 289 288 286 286 285 286 286 287 287 287 286 286 287 289 290 290 290 290 290 290 290 291 291 291 292 292 292 292 291 292 292 293 293 294 294 295
296 295 292 289 289 289 289 289 288 286 285 284 284 285 286 286 285 285 285 285 288 290 290 290 290 288 289 289 290 290 290 290 290 290 290 291 291 292 292 292 293 294 295
296 295 294 291 289 288 289 289 289 287 285 284 284 284 284 285 285 285 285 285 289 291 291 291 290 288 288 289 289 289 289 289 289 289 290 290 290 290 290 291 292 293 294
296 295 294 292 291 289 288 288 288 287 285 284 283 283 284 284 284 284 284 285 289 290 290 289 287 287 287 287 287 288 288 288 289 289 289 290 290 290 291 291 291 292 294
296 295 294 292 291 290 289 288 288 287 285 283 283 283 283 283 283 283 284 285 289 290 290 289 289 289 287 287 287 287 288 288 288 289 289 289 290 290 290 290 291 291 292
297 296 294 292 291 290 289 287 287 286 284 283 283 284 284 284 284 284 284 285 290 290 290 290 290 290 289 289 289 289 288 287 287 287 289 290 290 290 289 290 290 291 292
296 295 294 292 291 288 288 286 286 286 283 283 283 284 284 284 284 284 285 285 289 290 290 290 290 290 290 290 290 290 290 289 288 288 289 289 290 290 291 291 291 291 291
Wind_Speed
37 40 40 36 33 34 36 38 43 48 47 45 45 46 44 38 32 39 34 31 27 26 24 23 30 29 29 30 28 21 27 24 22 21 21 18 18 17 18 20 22 22 23
39 41 42 43 42 42 42 42 41 46 49 50 49 47 46 40 32 44 38 30 29 33 31 33 36 33 35 34 27 21 34 26 22 21 19 17 17 17 20 21 23 24 24
40 40 45 48 46 45 46 47 49 48 46 49 52 50 46 41 36 44 44 39 38 37 38 40 38 38 39 32 31 39 34 27 24 19 17 15 16 17 17 17 19 19 18
37 41 43 46 48 46 49 48 49 49 50 46 47 52 46 44 37 39 50 43 40 37 44 37 36 40 35 33 42 35 31 27 22 17 15 14 13 15 15 16 16 16 13
43 45 42 50 49 48 50 50 48 48 47 45 44 45 44 42 40 35 53 53 45 44 50 46 40 37 28 34 36 31 26 22 19 15 12 11 11 12 13 14 16 17 15
42 45 48 47 55 50 48 48 47 47 46 42 40 40 39 38 36 39 43 58 51 50 49 47 40 32 34 30 27 23 20 18 16 13 11 10 11 11 11 12 13 16 17
41 42 44 47 53 48 44 41 41 42 41 39 34 31 31 32 33 36 43 55 52 51 50 44 40 39 34 30 25 21 18 16 13 11 9 9 9 10 10 13 14 15 16
39 43 42 48 49 50 44 41 39 33 33 33 22 21 22 24 29 36 47 54 53 54 45 43 43 38 33 28 24 21 16 12 8 9 10 11 12 12 12 14 17 18 19
36 40 39 43 46 47 49 43 42 41 36 33 26 12 14 19 26 38 49 51 51 42 44 41 37 35 32 28 23 18 13 9 9 10 10 12 12 14 15 17 20 22 20
33 35 36 35 42 43 48 50 48 47 46 43 39 28 12 6 14 43 53 46 44 48 43 42 38 36 30 25 20 15 11 9 11 12 13 14 15 17 19 19 18 17 14
30 28 29 32 35 41 43 47 48 48 48 46 45 44 37 31 22 17 32 45 49 49 49 42 34 28 25 20 12 8 10 11 12 13 15 14 12 11 11 11 12 12 10
27 26 26 27 31 33 37 43 46 46 47 48 48 46 43 40 36 31 29 40 40 37 31 29 24 20 17 13 10 10 10 10 12 10 9 8 8 9 10 10 10 12 12
26 26 26 26 25 28 32 37 41 43 44 45 45 44 44 42 37 33 28 28 24 22 20 16 15 10 8 8 8 7 7 7 5 4 5 5 7 10 7 7 7 11 12
26 26 25 27 27 25 25 30 35 39 40 41 40 40 39 38 37 32 30 26 19 18 14 14 12 10 11 11 12 11 9 5 1 5 5 8 9 9 5 8 8 9 6
28 26 25 26 26 25 20 24 29 32 34 35 35 34 33 33 29 27 26 22 20 17 13 14 14 14 14 12 11 9 5 2 2 5 5 3 3 5 6 6 7 8 8
28 27 26 25 24 22 17 17 23 27 29 29 29 28 29 26 22 22 20 17 14 10 12 13 14 12 9 7 5 3 2 2 3 4 4 4 6 7 8 8 9 9 9
28 26 26 25 22 21 18 18 19 23 24 25 26 26 25 24 23 21 18 14 13 9 12 10 9 6 3 1 3 3 4 4 4 6 6 6 8 8 9 9 9 9 10
29 26 25 26 23 20 19 19 19 21 23 26 25 24 23 23 22 22 21 16 16 14 12 9 7 4 2 3 5 5 6 7 8 8 8 9 9 9 8 9 9 9 8
33 30 26 24 24 22 22 23 23 23 23 23 25 23 23 21 20 19 20 22 21 19 14 9 6 4 4 5 6 7 8 9 9 10 10 10 10 10 9 10 10 9 7
31 30 29 24 22 22 23 25 27 24 23 25 25 25 25 24 25 25 24 23 22 19 16 14 11 7 5 7 8 9 9 8 9 10 11 13 12 10 9 9 9 10 10
28 31 29 29 22 20 20 22 25 27 25 26 23 22 21 23 24 24 24 24 24 22 21 20 17 14 11 10 11 9 11 13 13 10 8 8 8 10 10 10 11 10 9
27 29 31 29 27 22 21 21 23 28 25 27 27 24 22 21 20 21 22 23 23 22 22 22 19 18 17 15 12 11 14 13 10 9 9 8 9 10 11 13 12 9 10
23 25 29 28 29 27 24 20 22 27 28 27 27 26 25 24 24 24 25 25 25 24 22 20 17 17 15 12 10 11 13 13 11 11 11 10 10 11 11 11 11 11 8
20 24 28 27 28 30 27 23 21 25 27 27 27 26 25 24 24 24 24 26 26 26 25 21 17 15 13 12 11 10 13 13 15 16 13 12 13 12 15 14 10 10 11
18 23 27 27 29 31 30 22 23 26 27 27 27 27 26 25 26 26 27 27 27 28 27 24 21 17 15 15 14 12 13 16 19 19 16 14 13 13 14 14 14 12 13
18 22 25 27 30 30 27 24 26 28 28 27 27 27 26 26 27 27 27 28 29 29 28 26 22 19 17 17 16 15 14 17 18 18 18 18 17 16 15 14 14 16 16
Wind_Direction
350 350 348 343 335 330 323 315 309 301 292 283 275 272 270 265 264 261 267 267 262 243 231 237 218 215 221 207 225 238 249 235 229 219 223 234 252 267 281 286 286 285 285
356 353 350 344 340 336 331 323 312 303 295 290 282 275 271 270 264 251 259 258 258 239 236 246 231 237 226 213 218 221 232 231 232 222 223 238 257 274 282 286 288 289 292
358 351 352 352 344 338 334 328 322 314 300 291 287 279 272 265 258 249 257 255 256 242 241 240 235 228 214 210 209 210 217 219 228 229 230 242 262 277 285 289 291 294 300
355 354 353 348 343 339 337 332 325 317 310 300 287 282 275 265 248 252 248 254 243 233 228 229 229 218 208 202 211 213 212 213 222 230 236 250 267 279 286 294 297 304 313
3 2 350 352 350 346 340 337 330 322 315 307 296 284 277 266 254 238 242 248 231 224 229 229 229 213 200 207 213 210 211 212 216 229 245 260 275 285 289 294 307 316 329
5 4 4 353 1 352 347 342 337 333 327 319 304 289 278 265 253 240 244 236 228 225 225 221 215 191 200 203 203 206 212 216 218 229 248 267 282 288 291 297 305 317 334
4 3 360 355 4 360 354 349 344 351 339 328 313 295 279 265 243 243 247 233 224 216 209 204 185 189 192 194 195 199 201 209 219 242 261 272 277 277 288 293 301 308 314
5 3 4 3 12 13 8 3 358 3 4 5 338 307 286 264 245 245 234 218 211 206 199 181 184 180 184 186 187 186 189 207 222 244 258 270 278 285 290 289 296 301 305
6 4 9 7 14 18 19 18 20 20 24 27 26 330 285 261 249 238 208 206 199 183 177 176 182 178 176 179 181 182 188 208 238 243 260 271 276 283 285 290 292 293 295
8 5 7 11 15 24 26 25 26 27 32 36 41 52 75 103 172 196 198 192 177 167 166 166 175 176 170 172 177 178 193 236 238 247 259 267 273 278 280 281 283 280 287
4 4 5 14 12 18 22 24 22 26 28 32 37 44 58 75 99 113 145 175 162 156 159 162 162 167 170 174 178 214 239 228 236 244 254 262 267 270 275 284 284 280 276
5 10 8 13 13 12 19 22 24 23 24 28 34 39 42 50 65 80 104 137 143 146 134 146 151 157 167 177 198 210 203 225 237 236 242 248 264 280 285 275 273 275 278
8 11 12 11 14 11 15 24 26 26 25 23 28 33 37 41 45 56 68 89 96 113 112 120 123 139 166 176 168 158 157 172 198 231 254 266 285 295 310 298 300 297 275
11 13 12 13 13 12 13 24 27 27 25 25 25 26 31 34 36 45 51 58 66 82 91 91 97 103 105 115 122 134 140 142 261 281 270 277 278 293 304 295 291 296 306
14 14 11 11 13 11 14 22 29 28 26 25 26 26 26 29 29 37 47 53 61 71 85 95 98 103 112 124 134 144 149 187 312 313 311 305 306 306 299 292 286 287 293
12 13 11 8 10 13 19 13 22 27 16 23 25 29 32 33 30 35 39 47 60 70 89 95 101 105 120 136 145 157 181 239 287 285 293 290 300 311 315 300 294 296 293
12 15 12 12 12 14 12 7 5 3 11 20 22 28 31 31 33 35 33 32 41 45 67 78 89 104 114 153 238 238 254 262 268 271 266 274 287 303 310 306 302 294 291
16 16 17 17 16 13 10 6 1 1 2 8 17 22 24 22 22 25 32 37 42 43 48 50 52 44 14 295 283 269 266 266 268 271 279 276 274 275 285 291 286 289 298
15 15 13 14 19 19 16 15 10 7 7 6 5 13 17 17 17 19 22 26 24 24 21 17 20 10 327 303 301 296 283 280 283 289 285 279 278 278 281 280 274 282 282
14 13 13 8 7 10 11 11 11 11 8 4 4 4 4 6 9 10 12 12 11 8 2 359 351 335 314 305 300 298 297 296 292 288 290 286 273 270 277 276 278 278 267
7 10 7 9 3 2 1 3 6 7 7 10 9 4 1 0 1 2 1 359 357 355 351 346 340 336 319 287 273 280 287 291 291 293 296 293 283 260 254 269 269 265 271
359 4 2 4 7 2 358 355 355 2 3 3 4 3 2 3 1 1 357 354 352 351 345 339 334 323 318 307 291 267 273 286 289 271 273 276 272 284 276 261 248 263 265
360 358 355 358 1 1 357 357 356 359 358 359 359 359 358 358 359 358 356 352 350 348 345 342 333 321 314 302 286 269 265 268 270 268 267 267 263 265 279 277 260 245 259
354 348 351 353 354 355 352 354 350 355 356 356 355 355 355 355 354 353 351 350 348 348 346 341 335 327 324 318 306 267 254 252 259 265 266 258 257 255 260 264 253 250 250
346 342 344 348 349 349 346 353 347 353 353 352 352 352 351 351 350 350 350 348 346 345 346 345 340 331 321 315 314 302 278 261 258 260 259 254 260 262 255 259 249 242 246
336 340 340 345 345 345 345 348 349 351 349 349 349 349 349 349 348 347 346 345 345 345 346 344 338 329 323 319 315 302 283 269 264 263 258 250 252 256 261 264 255 247 237